Location: Newark
(51.0089°N, 21.5817°E)
Time: 06:04:39
(UTC+00:00)

N. Korean satellite - Visible Passes

Search period start: 09 December 2019 00:00
Search period end: 19 December 2019 00:00
Orbit: 456 x 506 km, 97.2° (Epoch: 07 December)

Date Brightness Start Highest point End Pass type
(mag) Time Alt. Az. Time Alt. Az. Time Alt. Az.
09 Dec 8.8 03:52:39 10° NE 03:55:43 26° E 03:58:44 10° SSE visible
09 Dec 7.5 05:26:02 10° N 05:29:06 27° WNW 05:32:06 10° SW visible
09 Dec 8.5 16:05:50 10° SSW 16:09:13 33° W 16:12:36 10° NNW visible
10 Dec 9.8 03:28:01 10° NE 03:30:04 15° E 03:32:05 10° SE visible
10 Dec 6.7 05:00:19 10° N 05:03:47 50° WNW 05:07:10 10° SSW visible
10 Dec 7.1 15:40:01 10° S 15:43:42 64° WSW 15:47:23 10° NNW visible
11 Dec 6.5 04:34:48 10° NNE 04:38:23 82° ESE 04:41:52 10° SSW visible
11 Dec 6.6 15:14:35 10° SSE 15:18:16 66° ENE 15:21:56 10° N visible
11 Dec 10.0 16:50:26 10° WSW 16:52:04 12° W 16:53:43 10° WNW visible
12 Dec 7.9 04:09:30 10° NNE 04:12:53 40° E 04:16:11 10° S visible
12 Dec 7.9 05:43:30 10° NNW 05:46:01 19° WNW 05:48:30 10° WSW visible
12 Dec 9.3 16:23:27 10° SW 16:26:24 22° W 16:29:21 10° NW visible
13 Dec 9.1 03:44:29 10° NE 03:47:16 21° E 03:50:01 10° SE visible
13 Dec 7.2 05:17:34 10° N 05:20:46 32° WNW 05:23:53 10° SW visible
13 Dec 8.1 15:57:19 10° S 16:00:49 40° W 16:04:19 10° NNW visible
14 Dec 10.0 03:20:14 10° ENE 03:21:35 12° E 03:22:55 10° ESE visible
14 Dec 6.4 04:51:55 10° N 04:55:25 62° WNW 04:58:50 10° SSW visible
14 Dec 6.8 15:31:38 10° S 15:35:20 79° WSW 15:39:01 10° NNW visible
15 Dec 6.9 04:26:27 10° NNE 04:29:58 65° E 04:33:25 10° S visible
15 Dec 6.7 15:06:19 10° SSE 15:09:55 53° ENE 15:13:29 10° N visible
15 Dec 9.9 16:41:27 10° SW 16:43:37 15° W 16:45:47 10° NW visible
16 Dec 8.3 04:01:14 10° NNE 04:04:26 32° E 04:07:35 10° SSE visible
16 Dec 7.7 05:34:56 10° NNW 05:37:41 22° WNW 05:40:24 10° WSW visible
16 Dec 9.0 16:14:49 10° SSW 16:17:58 26° W 16:21:07 10° NW visible
17 Dec 9.4 03:36:21 10° NE 03:38:48 18° E 03:41:12 10° SE visible
17 Dec 6.9 05:09:05 10° N 05:12:23 39° WNW 05:15:37 10° SW visible
17 Dec 7.6 15:48:50 10° S 15:52:25 49° W 15:55:58 10° NNW visible
18 Dec 6.3 04:43:29 10° N 04:47:00 78° WNW 04:50:26 10° SSW visible
18 Dec 6.5 15:23:16 10° SSE 15:26:57 84° ENE 15:30:35 10° NNW visible
